�������l�o���
Date,Time,MP-1(��Sv/h),MP-2(��Sv/h),MP-3(��Sv/h),MP-4(��Sv/h),MP-5(��Sv/h),MP-6(��Sv/h),MP-7(��Sv/h),����,����(m/s),���J
2017/04/08,00:00,0.383,0.232,0.396,0.369,0.333,0.192,0.164,�k,8.4,��
2017/04/08,00:10,0.381,0.232,0.396,0.366,0.332,0.193,0.164,�k�k��,6.5,��
2017/04/08,00:20,0.382,0.231,0.396,0.367,0.332,0.193,0.165,�k�k��,6.5,��
2017/04/08,00:30,0.382,0.232,0.395,0.367,0.331,0.192,0.165,�k�k��,7.2,��
2017/04/08,00:40,0.382,0.231,0.396,0.367,0.333,0.193,0.165,�k�k��,6.9,��
2017/04/08,00:50,0.381,0.231,0.395,0.368,0.333,0.192,0.165,�k,7.4,��
2017/04/08,01:00,0.382,0.231,0.397,0.364,0.331,0.193,0.164,�k,7.5,��
2017/04/08,01:10,0.383,0.231,0.396,0.367,0.332,0.193,0.165,�k,10.1,��
2017/04/08,01:20,0.382,0.231,0.397,0.368,0.334,0.193,0.165,�k,10.1,��
2017/04/08,01:30,0.381,0.232,0.397,0.366,0.332,0.194,0.165,�k,8.7,��
2017/04/08,01:40,0.383,0.231,0.395,0.367,0.333,0.192,0.164,�k,8.8,��
2017/04/08,01:50,0.381,0.231,0.395,0.367,0.331,0.193,0.163,�k,8.2,��
2017/04/08,02:00,0.381,0.232,0.396,0.366,0.332,0.193,0.164,�k,8.6,��
2017/04/08,02:10,0.382,0.230,0.392,0.368,0.333,0.192,0.165,�k,8.3,��
2017/04/08,02:20,0.381,0.231,0.393,0.364,0.330,0.192,0.164,�k,8.5,��
2017/04/08,02:30,0.383,0.232,0.396,0.368,0.332,0.193,0.164,�k�k��,6.7,��
2017/04/08,02:40,0.380,0.231,0.393,0.365,0.332,0.193,0.164,�k�k��,7.0,��
2017/04/08,02:50,0.382,0.230,0.394,0.366,0.330,0.192,0.162,�k,8.4,��
2017/04/08,03:00,0.381,0.230,0.394,0.366,0.332,0.193,0.163,�k,7.1,��
2017/04/08,03:10,0.381,0.232,0.394,0.365,0.330,0.192,0.164,�k,7.5,��
2017/04/08,03:20,0.382,0.230,0.395,0.365,0.332,0.192,0.165,�k,7.2,��
2017/04/08,03:30,0.381,0.230,0.394,0.366,0.330,0.192,0.163,�k,7.3,��
2017/04/08,03:40,0.382,0.231,0.395,0.364,0.330,0.192,0.163,�k,7.2,��
2017/04/08,03:50,0.382,0.231,0.396,0.364,0.332,0.193,0.164,�k,6.8,��
2017/04/08,04:00,0.380,0.231,0.393,0.366,0.330,0.191,0.163,�k,6.2,��
2017/04/08,04:10,0.382,0.231,0.395,0.366,0.331,0.192,0.164,�k,4.5,��
2017/04/08,04:20,0.380,0.230,0.394,0.367,0.331,0.192,0.163,�k�k��,2.2,��
2017/04/08,04:30,0.380,0.231,0.395,0.364,0.331,0.191,0.162,�k,1.8,��
2017/04/08,04:40,0.383,0.230,0.395,0.368,0.332,0.193,0.163,�k,1.7,��
2017/04/08,04:50,0.381,0.231,0.394,0.363,0.331,0.193,0.163,�k,4.2,��
2017/04/08,05:00,0.382,0.230,0.396,0.367,0.330,0.192,0.164,�k,4.8,��
2017/04/08,05:10,0.380,0.231,0.394,0.365,0.331,0.191,0.164,�k,5.1,��
2017/04/08,05:20,0.381,0.230,0.395,0.364,0.329,0.192,0.164,�k,5.8,��
2017/04/08,05:30,0.382,0.229,0.396,0.367,0.333,0.193,0.162,�k,7.0,��
2017/04/08,05:40,0.381,0.231,0.394,0.365,0.329,0.192,0.163,�k,6.2,��
2017/04/08,05:50,0.382,0.232,0.395,0.364,0.331,0.192,0.163,�k,5.1,��
2017/04/08,06:00,0.380,0.230,0.395,0.366,0.331,0.192,0.163,�k,5.6,��
2017/04/08,06:10,0.382,0.231,0.393,0.365,0.330,0.191,0.164,�k,6.7,��
2017/04/08,06:20,0.381,0.230,0.395,0.367,0.333,0.193,0.165,�k,6.4,��
2017/04/08,06:30,0.381,0.230,0.394,0.364,0.331,0.193,0.163,�k,6.2,��
2017/04/08,06:40,0.382,0.230,0.395,0.367,0.331,0.192,0.164,�k,6.7,��
2017/04/08,06:50,0.380,0.230,0.395,0.364,0.331,0.192,0.164,�k,6.2,��
2017/04/08,07:00,0.381,0.230,0.393,0.366,0.331,0.193,0.164,�k,4.0,��
2017/04/08,07:10,0.383,0.230,0.396,0.368,0.332,0.192,0.164,�k,9.2,��
2017/04/08,07:20,0.380,0.231,0.395,0.365,0.330,0.193,0.164,�k,7.5,�L
2017/04/08,07:30,0.382,0.231,0.395,0.366,0.331,0.193,0.163,�k,7.6,�L
2017/04/08,07:40,0.382,0.231,0.396,0.366,0.334,0.193,0.164,�k,8.1,�L
2017/04/08,07:50,0.382,0.232,0.395,0.365,0.332,0.193,0.167,�k,7.5,�L
2017/04/08,08:00,0.382,0.232,0.396,0.368,0.332,0.195,0.165,�k,8.1,�L
2017/04/08,08:10,0.386,0.232,0.398,0.367,0.333,0.196,0.168,�k,6.7,�L
2017/04/08,08:20,0.382,0.233,0.394,0.367,0.332,0.195,0.166,�k,7.1,�L
2017/04/08,08:30,0.384,0.233,0.394,0.367,0.334,0.195,0.167,�k,6.7,�L
2017/04/08,08:40,0.381,0.232,0.396,0.364,0.331,0.195,0.166,�k,7.0,�L
2017/04/08,08:50,0.382,0.233,0.396,0.367,0.330,0.195,0.165,�k,7.0,�L
2017/04/08,09:00,0.382,0.232,0.394,0.364,0.331,0.194,0.166,�k,7.4,�L
2017/04/08,09:10,0.382,0.230,0.396,0.364,0.329,0.193,0.164,�k,6.6,��
2017/04/08,09:20,0.382,0.231,0.393,0.365,0.329,0.193,0.164,�k,6.3,��
2017/04/08,09:30,0.381,0.230,0.394,0.363,0.331,0.194,0.163,�k�k��,6.1,�L
2017/04/08,09:40,0.380,0.229,0.396,0.365,0.329,0.193,0.163,�k,6.1,�L
2017/04/08,09:50,0.381,0.232,0.392,0.363,0.332,0.191,0.163,�k,5.8,�L
2017/04/08,10:00,0.380,0.230,0.394,0.363,0.331,0.193,0.164,�k,6.4,��
2017/04/08,10:10,0.381,0.231,0.395,0.366,0.330,0.192,0.163,�k,6.2,��
2017/04/08,10:20,0.380,0.231,0.392,0.364,0.330,0.191,0.162,�k,5.9,�L
2017/04/08,10:30,0.380,0.231,0.394,0.363,0.329,0.193,0.163,�k�k��,6.4,�L
2017/04/08,10:40,0.382,0.230,0.395,0.362,0.330,0.192,0.163,�k,6.3,�L
2017/04/08,10:50,0.380,0.230,0.392,0.363,0.330,0.192,0.162,�k,6.8,�L
2017/04/08,11:00,0.381,0.230,0.394,0.363,0.329,0.192,0.164,�k,7.6,��
2017/04/08,11:10,0.381,0.231,0.394,0.364,0.330,0.192,0.163,�k,6.3,��
2017/04/08,11:20,0.379,0.229,0.394,0.365,0.328,0.192,0.162,�k,5.5,��
2017/04/08,11:30,0.381,0.231,0.395,0.361,0.332,0.191,0.162,�k,5.7,��
2017/04/08,11:40,0.378,0.230,0.394,0.364,0.327,0.192,0.162,�k,6.1,��
2017/04/08,11:50,0.380,0.229,0.395,0.362,0.330,0.192,0.162,�k,7.2,��
2017/04/08,12:00,0.381,0.230,0.392,0.364,0.329,0.191,0.162,�k,7.5,��
2017/04/08,12:10,0.380,0.229,0.394,0.363,0.331,0.192,0.162,�k�k��,8.7,��
2017/04/08,12:20,0.381,0.230,0.393,0.363,0.329,0.192,0.162,�k�k��,8.8,��
2017/04/08,12:30,0.379,0.230,0.395,0.364,0.331,0.193,0.162,�k�k��,9.5,��
2017/04/08,12:40,0.381,0.230,0.392,0.363,0.328,0.191,0.162,�k�k��,9.1,��
2017/04/08,12:50,0.380,0.229,0.395,0.362,0.329,0.192,0.163,�k,8.3,��
2017/04/08,13:00,0.381,0.229,0.392,0.362,0.329,0.191,0.162,�k�k��,9.3,��
2017/04/08,13:10,0.380,0.230,0.393,0.364,0.329,0.191,0.161,�k�k��,9.6,��
2017/04/08,13:20,0.381,0.231,0.393,0.363,0.329,0.191,0.163,�k�k��,8.6,��
2017/04/08,13:30,0.378,0.230,0.395,0.363,0.332,0.192,0.162,�k�k��,9.7,��
2017/04/08,13:40,0.382,0.229,0.393,0.364,0.330,0.192,0.162,�k�k��,8.9,��
2017/04/08,13:50,0.380,0.230,0.395,0.364,0.331,0.191,0.163,�k�k��,7.5,��
2017/04/08,14:00,0.380,0.231,0.394,0.365,0.328,0.191,0.162,�k�k��,7.1,��
2017/04/08,14:10,0.382,0.230,0.393,0.363,0.331,0.191,0.162,�k�k��,6.2,��
2017/04/08,14:20,0.380,0.230,0.395,0.365,0.329,0.193,0.163,�k�k��,4.2,��
2017/04/08,14:30,0.381,0.230,0.395,0.365,0.330,0.191,0.163,�k��,4.0,��
2017/04/08,14:40,0.380,0.231,0.396,0.366,0.330,0.192,0.162,�k��,3.6,��
2017/04/08,14:50,0.383,0.230,0.395,0.365,0.330,0.192,0.162,���k��,2.5,��
2017/04/08,15:00,0.379,0.230,0.395,0.366,0.331,0.192,0.163,���k��,2.3,��
2017/04/08,15:10,0.383,0.230,0.395,0.366,0.332,0.192,0.162,���k��,2.4,��
2017/04/08,15:20,0.380,0.229,0.395,0.364,0.331,0.192,0.162,���k��,2.8,��
2017/04/08,15:30,0.383,0.230,0.394,0.365,0.330,0.192,0.164,��,1.9,��
2017/04/08,15:40,0.381,0.230,0.395,0.365,0.332,0.192,0.163,��,2.8,��
2017/04/08,15:50,0.381,0.230,0.392,0.366,0.330,0.191,0.163,���쓌,2.3,��
2017/04/08,16:00,0.381,0.231,0.396,0.364,0.331,0.191,0.163,���쓌,2.6,��
2017/04/08,16:10,0.381,0.231,0.393,0.365,0.329,0.192,0.163,�쓌,3.0,��
2017/04/08,16:20,0.381,0.229,0.394,0.367,0.332,0.192,0.163,�쓌,3.4,��
2017/04/08,16:30,0.381,0.231,0.395,0.364,0.330,0.192,0.163,�쓌,2.1,��
2017/04/08,16:40,0.382,0.229,0.394,0.367,0.333,0.193,0.163,��쓌,3.3,��
2017/04/08,16:50,0.381,0.229,0.395,0.366,0.329,0.192,0.163,��쓌,3.3,��
2017/04/08,17:00,0.382,0.230,0.394,0.366,0.330,0.191,0.163,��쓌,4.0,��
2017/04/08,17:10,0.381,0.231,0.395,0.367,0.332,0.192,0.162,��,3.6,��
2017/04/08,17:20,0.381,0.230,0.395,0.366,0.329,0.192,0.163,��,3.9,��
2017/04/08,17:30,0.382,0.232,0.395,0.367,0.334,0.192,0.162,��,3.7,��
2017/04/08,17:40,0.380,0.230,0.396,0.365,0.330,0.193,0.163,��,4.8,��
2017/04/08,17:50,0.381,0.231,0.394,0.365,0.331,0.192,0.163,��,4.5,��
2017/04/08,18:00,0.381,0.231,0.395,0.368,0.333,0.192,0.164,��,4.8,��
2017/04/08,18:10,0.381,0.230,0.395,0.364,0.331,0.193,0.163,��,4.8,��
2017/04/08,18:20,0.381,0.230,0.396,0.367,0.330,0.192,0.164,��,5.0,��
2017/04/08,18:30,0.381,0.232,0.396,0.367,0.332,0.192,0.163,��,3.4,��
2017/04/08,18:40,0.381,0.230,0.394,0.365,0.330,0.192,0.164,��,2.6,��
2017/04/08,18:50,0.381,0.231,0.393,0.367,0.332,0.191,0.163,��쓌,1.7,��
2017/04/08,19:00,0.381,0.231,0.397,0.365,0.330,0.193,0.163,��,1.0,��
2017/04/08,19:10,0.382,0.230,0.394,0.366,0.330,0.192,0.163,��,0.6,��
2017/04/08,19:20,0.381,0.230,0.395,0.367,0.332,0.193,0.163,-,CALM,��
2017/04/08,19:30,0.382,0.231,0.396,0.364,0.330,0.192,0.163,-,CALM,��
2017/04/08,19:40,0.379,0.230,0.395,0.365,0.331,0.192,0.163,�k�k��,0.8,��
2017/04/08,19:50,0.379,0.230,0.397,0.365,0.332,0.192,0.164,�k,1.1,��
2017/04/08,20:00,0.382,0.231,0.395,0.365,0.332,0.193,0.163,�k�k��,0.6,��
2017/04/08,20:10,0.380,0.231,0.394,0.367,0.330,0.192,0.162,-,CALM,��
2017/04/08,20:20,0.382,0.231,0.397,0.363,0.329,0.192,0.164,�k�k��,0.5,��
2017/04/08,20:30,0.381,0.232,0.394,0.368,0.333,0.192,0.163,�k,1.9,��
2017/04/08,20:40,0.379,0.230,0.394,0.367,0.329,0.192,0.163,�k,0.8,��
2017/04/08,20:50,0.382,0.230,0.396,0.365,0.331,0.193,0.163,-,CALM,��
2017/04/08,21:00,0.380,0.231,0.395,0.368,0.331,0.193,0.163,-,CALM,��
2017/04/08,21:10,0.382,0.232,0.395,0.365,0.330,0.192,0.163,��쓌,0.7,��
2017/04/08,21:20,0.380,0.230,0.394,0.366,0.332,0.192,0.164,-,CALM,��
2017/04/08,21:30,0.381,0.231,0.395,0.367,0.331,0.191,0.164,�k,1.8,��
2017/04/08,21:40,0.382,0.230,0.396,0.364,0.331,0.192,0.163,�k,1.8,�L
2017/04/08,21:50,0.381,0.232,0.394,0.366,0.333,0.192,0.163,�k,1.0,�L
2017/04/08,22:00,0.382,0.231,0.396,0.366,0.332,0.194,0.163,�k�k��,1.1,��
2017/04/08,22:10,0.380,0.230,0.395,0.366,0.333,0.192,0.164,�k�k��,1.8,��
2017/04/08,22:20,0.381,0.231,0.393,0.366,0.331,0.192,0.164,���k��,1.0,�L
2017/04/08,22:30,0.383,0.231,0.396,0.366,0.330,0.193,0.163,���쐼,0.5,�L
2017/04/08,22:40,0.381,0.230,0.396,0.368,0.333,0.193,0.163,�쐼,1.0,��
2017/04/08,22:50,0.383,0.231,0.396,0.366,0.331,0.193,0.163,�쐼,1.4,�L
2017/04/08,23:00,0.382,0.233,0.396,0.367,0.333,0.193,0.164,���k��,1.1,�L
2017/04/08,23:10,0.383,0.231,0.394,0.368,0.331,0.194,0.164,�k��,1.2,�L
2017/04/08,23:20,0.380,0.230,0.398,0.365,0.333,0.193,0.163,�k��,1.4,��
2017/04/08,23:30,0.381,0.231,0.396,0.368,0.332,0.193,0.165,���k��,1.7,��
2017/04/08,23:40,0.382,0.232,0.396,0.366,0.331,0.194,0.164,�k��,1.7,��
2017/04/08,23:50,0.381,0.232,0.397,0.367,0.333,0.193,0.164,���k��,1.0,��
